(°C)
-12°
-13°
-15°
-16°
-16°
-17°
-18°
(°C)
-18°
-19°
-20°
-21°
-22°
-22°
-23°
ЮЮЗ
ЮЮЗ
ЮЮЗ
ЮЮЗ
ЮЮЗ
ЮЮЗ
ЮЮЗ
(km/h)
9-20
9-19
8-19
8-18
7-17
7-20
7-16
(mm)
0
0
0
0
0
0
0
(%)
0
0
0
0
0
0
0

Издигане на слънцето

/ 1.1°
sun-icon
UV 0
09:38
17:41
Намаляваща полу-луна (198°)
18:45
10:58

METAR за 55.03°С 82.6°И (UNNT)

Час Условия Температура/
Точка на оросяване
Вятър Видимост Времето Облаци Налягане Промяна Сурови
VFR °C / °C 160º 6kt >10km - Clouds and Visibility OK 1025 No Significant change. Runway 25: Wet or puddles, 51-100% contamination with 1mm, friction coefficient 0.50. Runway 16: Compacted snow, 1-10% contamination with 2mm, friction coefficient 0.60. UNNT 191000Z 16003MPS CAVOK M13/M15 Q1025 R25/290150 R16/810260 NOSIG RMK QFE759/1012
VFR °C / °C 170º 6kt >10km - Clouds and Visibility OK 1025 No Significant change. Runway 25: Wet or puddles, 51-100% contamination with 1mm, friction coefficient 0.50. Runway 16: Compacted snow, 1-10% contamination with 2mm, friction coefficient 0.60. UNNT 190930Z 17003MPS CAVOK M11/M14 Q1025 R25/290150 R16/810260 NOSIG RMK QFE759/1012
VFR °C / °C 160º 6kt >10km - Clouds and Visibility OK 1025 No Significant change. Runway 25: Wet or puddles, 51-100% contamination with 1mm, friction coefficient 0.50. Runway 16: Compacted snow, 1-10% contamination with 2mm, friction coefficient 0.60. UNNT 190900Z 16003MPS CAVOK M11/M14 Q1025 R25/290150 R16/810260 NOSIG RMK QFE759/1012
VFR °C / °C 160º 6kt >10km - Clouds and Visibility OK 1025 No Significant change. Runway 25: Wet or puddles, 51-100% contamination with 1mm, friction coefficient 0.50. Runway 16: Compacted snow, 1-10% contamination with 2mm, friction coefficient 0.60. UNNT 190830Z 16003MPS CAVOK M12/M14 Q1025 R25/290150 R16/810260 NOSIG RMK QFE759/1012
VFR °C / °C 170º 8kt >10km - Clouds and Visibility OK 1025 No Significant change. Runway 25: Wet or puddles, 51-100% contamination with 1mm, friction coefficient 0.50. Runway 16: Compacted snow, 1-10% contamination with 2mm, friction coefficient 0.60. UNNT 190800Z 17004MPS CAVOK M11/M13 Q1025 R25/290150 R16/810260 NOSIG RMK QFE759/1012
VFR °C / °C 170º 6kt >10km - Broken Clouds 4200ft 1025 No Significant change. Runway 25: Wet or puddles, 51-100% contamination with 1mm, friction coefficient 0.50. Runway 16: Compacted snow, 1-10% contamination with 2mm, friction coefficient 0.60. UNNT 190730Z 17003MPS 9999 BKN042 M11/M13 Q1025 R25/290150 R16/810260 NOSIG RMK QFE759/1012
VFR °C / °C 180º 6kt >10km - Clouds and Visibility OK 1025 No Significant change. Runway 25: Wet or puddles, 51-100% contamination with 1mm, friction coefficient 0.50. Runway 16: Compacted snow, 1-10% contamination with 2mm, friction coefficient 0.60. UNNT 190700Z 18003MPS CAVOK M12/M13 Q1025 R25/290150 R16/810260 NOSIG RMK QFE759/1012
VFR °C / °C 170º 6kt >10km - Clouds and Visibility OK 1025 No Significant change. Runway 25: Dry snow, 51-100% contamination with 1mm, friction coefficient 0.45. Runway 16: Dry snow, 51-100% contamination with 1mm, friction coefficient 0.45. UNNT 190630Z 17003MPS CAVOK M12/M13 Q1025 R25/490145 R16/490145 NOSIG RMK QFE759/1012
VFR °C / °C 170º 6kt >10km - Clouds and Visibility OK 1025 No Significant change. Runway 25: Dry snow, 51-100% contamination with 1mm, friction coefficient 0.45. Runway 16: Dry snow, 51-100% contamination with 1mm, friction coefficient 0.45. UNNT 190600Z 17003MPS CAVOK M13/M14 Q1025 R25/490145 R16/490145 NOSIG RMK QFE759/1012
VFR °C / °C 160º 6kt >10km - Clouds and Visibility OK 1026 No Significant change. Runway 25: Dry snow, 51-100% contamination with 1mm, friction coefficient 0.45. Runway 16: Dry snow, 51-100% contamination with 1mm, friction coefficient 0.45. UNNT 190530Z 16003MPS CAVOK M14/M15 Q1026 R25/490145 R16/490145 NOSIG RMK QFE759/1012
VFR °C / °C 160º 6kt >10km - Clouds and Visibility OK 1026 No Significant change. Runway 25: Dry snow, 51-100% contamination with 1mm, friction coefficient 0.45. Runway 16: Dry snow, 51-100% contamination with 1mm, friction coefficient 0.45. UNNT 190500Z 16003MPS CAVOK M14/M15 Q1026 R25/490145 R16/490145 NOSIG RMK QFE759/1013
VFR °C / °C 170º 6kt >10km - Clouds and Visibility OK 1026 No Significant change. Runway 25: Dry snow, 51-100% contamination with 1mm, friction coefficient 0.45. Runway 16: Dry snow, 51-100% contamination with 1mm, friction coefficient 0.45. UNNT 190430Z 17003MPS CAVOK M14/M15 Q1026 R25/490145 R16/490145 NOSIG RMK QFE760/1013
VFR °C / °C 170º 6kt >10km Light Snow 1.00mm precipitation Vertical Visibility of 0ft. 1026 No Significant change. Runway 25: Dry snow, 51-100% contamination with 1mm, friction coefficient 0.45. Runway 16: Dry snow, 51-100% contamination with 1mm, friction coefficient 0.45. UNNT 190400Z 17003MPS 9999 -SN NSC M14/M16 Q1026 R25/490145 R16/490145 NOSIG RMK QFE759/1013
VFR °C / °C 170º 6kt >10km Light Snow 1.00mm precipitation Vertical Visibility of 0ft. 1026 No Significant change. Runway 25: Dry snow, 51-100% contamination with 1mm, friction coefficient 0.45. Runway 16: Dry snow, 51-100% contamination with 1mm, friction coefficient 0.45. UNNT 190330Z 17003MPS 9999 -SN NSC M14/M16 Q1026 R25/490145 R16/490145 NOSIG RMK QFE759/1013
VFR °C / °C 160º 6kt 9000m - Clear 1026 No Significant change. Runway 25: Dry snow, 51-100% contamination with 1mm, friction coefficient 0.45. Runway 16: Dry snow, 51-100% contamination with 1mm, friction coefficient 0.45. UNNT 190300Z 16003MPS 9000 NSC M15/M17 Q1026 R25/490145 R16/490145 NOSIG RMK QFE759/1013
VFR °C / °C 170º 6kt >10km - Clouds and Visibility OK 1026 No Significant change. Runway 25: Dry snow, 51-100% contamination with 1mm, friction coefficient 0.45. Runway 16: Dry snow, 51-100% contamination with 1mm, friction coefficient 0.45. UNNT 190230Z 17003MPS CAVOK M15/M17 Q1026 R25/490145 R16/490145 NOSIG RMK QFE759/1012
VFR °C / °C 170º 6kt >10km - Clouds and Visibility OK 1026 No Significant change. Runway 25: Dry snow, 51-100% contamination with 1mm, friction coefficient 0.45. Runway 16: Dry snow, 51-100% contamination with 1mm, friction coefficient 0.45. UNNT 190200Z 17003MPS CAVOK M15/M17 Q1026 R25/490145 R16/490145 NOSIG RMK QFE759/1012
VFR °C / °C 160º 6kt >10km - Clouds and Visibility OK 1026 No Significant change. Runway 25: Dry snow, 51-100% contamination with 1mm, friction coefficient 0.45. Runway 16: Dry snow, 51-100% contamination with 1mm, friction coefficient 0.45. UNNT 190130Z 16003MPS CAVOK M15/M17 Q1026 R25/490145 R16/490145 NOSIG RMK QFE759/1012
VFR °C / °C 160º 6kt >10km - Few Clouds 1000ft 1026 No Significant change. Runway 25: Dry snow, 51-100% contamination with 1mm, friction coefficient 0.45. Runway 16: Dry snow, 51-100% contamination with 1mm, friction coefficient 0.45. UNNT 190100Z 16003MPS 9999 FEW010 M15/M17 Q1026 R25/490145 R16/490145 NOSIG RMK QFE759/1012
VFR °C / °C 160º 8kt >10km - Scattered Clouds 1000ft 1026 No Significant change. Runway 25: Dry snow, 51-100% contamination with 1mm, friction coefficient 0.45. Runway 16: Dry snow, 51-100% contamination with 1mm, friction coefficient 0.45. UNNT 190030Z 16004MPS 9999 SCT010 M15/M16 Q1026 R25/490145 R16/490145 NOSIG RMK QFE759/1012
VFR °C / °C 160º 8kt >10km - Scattered Clouds 1000ft 1026 No Significant change. Runway 25: Dry snow, 51-100% contamination with 1mm, friction coefficient 0.45. Runway 16: Dry snow, 51-100% contamination with 1mm, friction coefficient 0.45. UNNT 190000Z 16004MPS 9999 SCT010 M14/M16 Q1026 R25/490145 R16/490145 NOSIG RMK QFE759/1012
LIFR °C / °C 160º 6kt 8000m Light Snow 1.00mm precipitation Vertical Visibility of 0ft. 1026 No Significant change. Runway 25: Dry snow, 51-100% contamination with 1mm, friction coefficient 0.45. Runway 16: Dry snow, 51-100% contamination with 1mm, friction coefficient 0.45. UNNT 182330Z 16003MPS 8000 -SN OVC001 M14/M16 Q1026 R25/490145 R16/490145 NOSIG RMK QBB050 QFE759/1013
MVFR °C / °C 160º 8kt 8000m - Few Clouds 400ft 1026 No Significant change. Runway 25: Damp, 51-100% contamination with <1mm, friction coefficient 0.50. Runway 16: Dry snow, 51-100% contamination with 1mm, friction coefficient 0.45. UNNT 182300Z 16004MPS 8000 FEW004 M14/M16 Q1026 R25/190050 R16/490145 NOSIG RMK QFE759/1013
VFR °C / °C 160º 4kt 9000m - Scattered Clouds 400ft 1026 No Significant change. Runway 07: Damp, 51-100% contamination with <1mm, friction coefficient 0.50. Runway 16: Dry snow, 51-100% contamination with 1mm, friction coefficient 0.45. UNNT 182230Z 16002MPS 9000 SCT004 M14/M16 Q1026 R07/190050 R16/490145 NOSIG RMK QFE759/1013

VFR

°C / °C

[Още]
Вятър 160º 6kt
Видимост >10km
Времето -
Облаци Clouds and Visibility OK
Налягане 1025
Промяна No Significant change. Runway 25: Wet or puddles, 51-100% contamination with 1mm, friction coefficient 0.50. Runway 16: Compacted snow, 1-10% contamination with 2mm, friction coefficient 0.60.
Сурови UNNT 191000Z 16003MPS CAVOK M13/M15 Q1025 R25/290150 R16/810260 NOSIG RMK QFE759/1012

VFR

°C / °C

[Още]
Вятър 170º 6kt
Видимост >10km
Времето -
Облаци Clouds and Visibility OK
Налягане 1025
Промяна No Significant change. Runway 25: Wet or puddles, 51-100% contamination with 1mm, friction coefficient 0.50. Runway 16: Compacted snow, 1-10% contamination with 2mm, friction coefficient 0.60.
Сурови UNNT 190930Z 17003MPS CAVOK M11/M14 Q1025 R25/290150 R16/810260 NOSIG RMK QFE759/1012

VFR

°C / °C

[Още]
Вятър 160º 6kt
Видимост >10km
Времето -
Облаци Clouds and Visibility OK
Налягане 1025
Промяна No Significant change. Runway 25: Wet or puddles, 51-100% contamination with 1mm, friction coefficient 0.50. Runway 16: Compacted snow, 1-10% contamination with 2mm, friction coefficient 0.60.
Сурови UNNT 190900Z 16003MPS CAVOK M11/M14 Q1025 R25/290150 R16/810260 NOSIG RMK QFE759/1012

VFR

°C / °C

[Още]
Вятър 160º 6kt
Видимост >10km
Времето -
Облаци Clouds and Visibility OK
Налягане 1025
Промяна No Significant change. Runway 25: Wet or puddles, 51-100% contamination with 1mm, friction coefficient 0.50. Runway 16: Compacted snow, 1-10% contamination with 2mm, friction coefficient 0.60.
Сурови UNNT 190830Z 16003MPS CAVOK M12/M14 Q1025 R25/290150 R16/810260 NOSIG RMK QFE759/1012

VFR

°C / °C

[Още]
Вятър 170º 8kt
Видимост >10km
Времето -
Облаци Clouds and Visibility OK
Налягане 1025
Промяна No Significant change. Runway 25: Wet or puddles, 51-100% contamination with 1mm, friction coefficient 0.50. Runway 16: Compacted snow, 1-10% contamination with 2mm, friction coefficient 0.60.
Сурови UNNT 190800Z 17004MPS CAVOK M11/M13 Q1025 R25/290150 R16/810260 NOSIG RMK QFE759/1012

VFR

°C / °C

[Още]
Вятър 170º 6kt
Видимост >10km
Времето -
Облаци Broken Clouds 4200ft
Налягане 1025
Промяна No Significant change. Runway 25: Wet or puddles, 51-100% contamination with 1mm, friction coefficient 0.50. Runway 16: Compacted snow, 1-10% contamination with 2mm, friction coefficient 0.60.
Сурови UNNT 190730Z 17003MPS 9999 BKN042 M11/M13 Q1025 R25/290150 R16/810260 NOSIG RMK QFE759/1012

VFR

°C / °C

[Още]
Вятър 180º 6kt
Видимост >10km
Времето -
Облаци Clouds and Visibility OK
Налягане 1025
Промяна No Significant change. Runway 25: Wet or puddles, 51-100% contamination with 1mm, friction coefficient 0.50. Runway 16: Compacted snow, 1-10% contamination with 2mm, friction coefficient 0.60.
Сурови UNNT 190700Z 18003MPS CAVOK M12/M13 Q1025 R25/290150 R16/810260 NOSIG RMK QFE759/1012

VFR

°C / °C

[Още]
Вятър 170º 6kt
Видимост >10km
Времето -
Облаци Clouds and Visibility OK
Налягане 1025
Промяна No Significant change. Runway 25: Dry snow, 51-100% contamination with 1mm, friction coefficient 0.45. Runway 16: Dry snow, 51-100% contamination with 1mm, friction coefficient 0.45.
Сурови UNNT 190630Z 17003MPS CAVOK M12/M13 Q1025 R25/490145 R16/490145 NOSIG RMK QFE759/1012

VFR

°C / °C

[Още]
Вятър 170º 6kt
Видимост >10km
Времето -
Облаци Clouds and Visibility OK
Налягане 1025
Промяна No Significant change. Runway 25: Dry snow, 51-100% contamination with 1mm, friction coefficient 0.45. Runway 16: Dry snow, 51-100% contamination with 1mm, friction coefficient 0.45.
Сурови UNNT 190600Z 17003MPS CAVOK M13/M14 Q1025 R25/490145 R16/490145 NOSIG RMK QFE759/1012

VFR

°C / °C

[Още]
Вятър 160º 6kt
Видимост >10km
Времето -
Облаци Clouds and Visibility OK
Налягане 1026
Промяна No Significant change. Runway 25: Dry snow, 51-100% contamination with 1mm, friction coefficient 0.45. Runway 16: Dry snow, 51-100% contamination with 1mm, friction coefficient 0.45.
Сурови UNNT 190530Z 16003MPS CAVOK M14/M15 Q1026 R25/490145 R16/490145 NOSIG RMK QFE759/1012

VFR

°C / °C

[Още]
Вятър 160º 6kt
Видимост >10km
Времето -
Облаци Clouds and Visibility OK
Налягане 1026
Промяна No Significant change. Runway 25: Dry snow, 51-100% contamination with 1mm, friction coefficient 0.45. Runway 16: Dry snow, 51-100% contamination with 1mm, friction coefficient 0.45.
Сурови UNNT 190500Z 16003MPS CAVOK M14/M15 Q1026 R25/490145 R16/490145 NOSIG RMK QFE759/1013

VFR

°C / °C

[Още]
Вятър 170º 6kt
Видимост >10km
Времето -
Облаци Clouds and Visibility OK
Налягане 1026
Промяна No Significant change. Runway 25: Dry snow, 51-100% contamination with 1mm, friction coefficient 0.45. Runway 16: Dry snow, 51-100% contamination with 1mm, friction coefficient 0.45.
Сурови UNNT 190430Z 17003MPS CAVOK M14/M15 Q1026 R25/490145 R16/490145 NOSIG RMK QFE760/1013

VFR

°C / °C

[Още]
Вятър 170º 6kt
Видимост >10km
Времето Light Snow 1.00mm precipitation
Облаци Vertical Visibility of 0ft.
Налягане 1026
Промяна No Significant change. Runway 25: Dry snow, 51-100% contamination with 1mm, friction coefficient 0.45. Runway 16: Dry snow, 51-100% contamination with 1mm, friction coefficient 0.45.
Сурови UNNT 190400Z 17003MPS 9999 -SN NSC M14/M16 Q1026 R25/490145 R16/490145 NOSIG RMK QFE759/1013

VFR

°C / °C

[Още]
Вятър 170º 6kt
Видимост >10km
Времето Light Snow 1.00mm precipitation
Облаци Vertical Visibility of 0ft.
Налягане 1026
Промяна No Significant change. Runway 25: Dry snow, 51-100% contamination with 1mm, friction coefficient 0.45. Runway 16: Dry snow, 51-100% contamination with 1mm, friction coefficient 0.45.
Сурови UNNT 190330Z 17003MPS 9999 -SN NSC M14/M16 Q1026 R25/490145 R16/490145 NOSIG RMK QFE759/1013

VFR

°C / °C

[Още]
Вятър 160º 6kt
Видимост 9000m
Времето -
Облаци Clear
Налягане 1026
Промяна No Significant change. Runway 25: Dry snow, 51-100% contamination with 1mm, friction coefficient 0.45. Runway 16: Dry snow, 51-100% contamination with 1mm, friction coefficient 0.45.
Сурови UNNT 190300Z 16003MPS 9000 NSC M15/M17 Q1026 R25/490145 R16/490145 NOSIG RMK QFE759/1013

VFR

°C / °C

[Още]
Вятър 170º 6kt
Видимост >10km
Времето -
Облаци Clouds and Visibility OK
Налягане 1026
Промяна No Significant change. Runway 25: Dry snow, 51-100% contamination with 1mm, friction coefficient 0.45. Runway 16: Dry snow, 51-100% contamination with 1mm, friction coefficient 0.45.
Сурови UNNT 190230Z 17003MPS CAVOK M15/M17 Q1026 R25/490145 R16/490145 NOSIG RMK QFE759/1012

VFR

°C / °C

[Още]
Вятър 170º 6kt
Видимост >10km
Времето -
Облаци Clouds and Visibility OK
Налягане 1026
Промяна No Significant change. Runway 25: Dry snow, 51-100% contamination with 1mm, friction coefficient 0.45. Runway 16: Dry snow, 51-100% contamination with 1mm, friction coefficient 0.45.
Сурови UNNT 190200Z 17003MPS CAVOK M15/M17 Q1026 R25/490145 R16/490145 NOSIG RMK QFE759/1012

VFR

°C / °C

[Още]
Вятър 160º 6kt
Видимост >10km
Времето -
Облаци Clouds and Visibility OK
Налягане 1026
Промяна No Significant change. Runway 25: Dry snow, 51-100% contamination with 1mm, friction coefficient 0.45. Runway 16: Dry snow, 51-100% contamination with 1mm, friction coefficient 0.45.
Сурови UNNT 190130Z 16003MPS CAVOK M15/M17 Q1026 R25/490145 R16/490145 NOSIG RMK QFE759/1012

VFR

°C / °C

[Още]
Вятър 160º 6kt
Видимост >10km
Времето -
Облаци Few Clouds 1000ft
Налягане 1026
Промяна No Significant change. Runway 25: Dry snow, 51-100% contamination with 1mm, friction coefficient 0.45. Runway 16: Dry snow, 51-100% contamination with 1mm, friction coefficient 0.45.
Сурови UNNT 190100Z 16003MPS 9999 FEW010 M15/M17 Q1026 R25/490145 R16/490145 NOSIG RMK QFE759/1012

VFR

°C / °C

[Още]
Вятър 160º 8kt
Видимост >10km
Времето -
Облаци Scattered Clouds 1000ft
Налягане 1026
Промяна No Significant change. Runway 25: Dry snow, 51-100% contamination with 1mm, friction coefficient 0.45. Runway 16: Dry snow, 51-100% contamination with 1mm, friction coefficient 0.45.
Сурови UNNT 190030Z 16004MPS 9999 SCT010 M15/M16 Q1026 R25/490145 R16/490145 NOSIG RMK QFE759/1012

VFR

°C / °C

[Още]
Вятър 160º 8kt
Видимост >10km
Времето -
Облаци Scattered Clouds 1000ft
Налягане 1026
Промяна No Significant change. Runway 25: Dry snow, 51-100% contamination with 1mm, friction coefficient 0.45. Runway 16: Dry snow, 51-100% contamination with 1mm, friction coefficient 0.45.
Сурови UNNT 190000Z 16004MPS 9999 SCT010 M14/M16 Q1026 R25/490145 R16/490145 NOSIG RMK QFE759/1012

LIFR

°C / °C

[Още]
Вятър 160º 6kt
Видимост 8000m
Времето Light Snow 1.00mm precipitation
Облаци Vertical Visibility of 0ft.
Налягане 1026
Промяна No Significant change. Runway 25: Dry snow, 51-100% contamination with 1mm, friction coefficient 0.45. Runway 16: Dry snow, 51-100% contamination with 1mm, friction coefficient 0.45.
Сурови UNNT 182330Z 16003MPS 8000 -SN OVC001 M14/M16 Q1026 R25/490145 R16/490145 NOSIG RMK QBB050 QFE759/1013

MVFR

°C / °C

[Още]
Вятър 160º 8kt
Видимост 8000m
Времето -
Облаци Few Clouds 400ft
Налягане 1026
Промяна No Significant change. Runway 25: Damp, 51-100% contamination with <1mm, friction coefficient 0.50. Runway 16: Dry snow, 51-100% contamination with 1mm, friction coefficient 0.45.
Сурови UNNT 182300Z 16004MPS 8000 FEW004 M14/M16 Q1026 R25/190050 R16/490145 NOSIG RMK QFE759/1013

VFR

°C / °C

[Още]
Вятър 160º 4kt
Видимост 9000m
Времето -
Облаци Scattered Clouds 400ft
Налягане 1026
Промяна No Significant change. Runway 07: Damp, 51-100% contamination with <1mm, friction coefficient 0.50. Runway 16: Dry snow, 51-100% contamination with 1mm, friction coefficient 0.45.
Сурови UNNT 182230Z 16002MPS 9000 SCT004 M14/M16 Q1026 R07/190050 R16/490145 NOSIG RMK QFE759/1013

TAF за 55.03°С 82.6°И (UNNT)

From till


From till Wind 190º 6kt. Gust 16kt. Visibility 8000m. Light Snow . Broken Clouds 4000ft.
Temporarly from till Scattered Clouds 200ft.

Сурови: TAF UNNT 190800Z 1909/2009 19003G08MPS 8000 -SN BKN040 TEMPO 1915/2006 SCT002

Радар и валежи в момента за 55.03°С 82.6°И

Ситен дъжд
Лек
Умерен
Тежък
Много тежък
Аве

Маркерът за локация обозначава 55.03°С 82.6°И. Анимацията показва Радара за валежи за последния час, както и прогноза за 1h. Дъждът или лекият сняг може да са невидими за радара. Интензивността на валежите е обозначена с цветни кодове, вариращи от светлосиньо до оранжево.

Актуални сателитни и дъждовни снимки за 55.03°С 82.6°И

Маркерът за локация е поставен върху 55.03°С 82.6°И. [Още]

Сателитното изображение в реално време съчетава видимата светлина през деня с инфрачервеното лъчение през нощта. През нощта изображението не е тъмно, тъй като инфрачервеното лъчение може да открива температурни разлики. За съжаление ниските облаци и мъглата са трудни за разграничаване от температурите на земята и затова могат да бъдат почти невидими през нощта. Сателитните изображения на Meteosat за Европа се актуализират в реално време на всеки 5 минути. Изображенията GOES-16/GOES-17 (Северна и Южна Америка) и Химавари (Азия) се актуализират на всеки 10 минути.

Всички права запазени 2022 EUMETSAT / meteoblue. / Всички права запазени 2022 meteoblue